Location: Houston
(29.7631°N, 95.3631°W)
Time: 20:46:01
(UTC-05:00)

ISS - Visible Passes

Search period start: 16 October 2019 00:00
Search period end: 26 October 2019 00:00
Orbit: 411 x 421 km, 51.6° (Epoch: 16 October)

Date Brightness Start Highest point End Pass type
(mag) Time Alt. Az. Time Alt. Az. Time Alt. Az.
21 Oct -1.3 06:44:11 10° S 06:47:00 25° SE 06:49:49 10° ENE visible
22 Oct -0.6 05:57:02 10° SSE 05:58:35 13° SE 06:00:08 10° E visible
23 Oct -3.8 06:43:04 10° SW 06:46:26 80° NW 06:49:48 10° NE visible
24 Oct -2.8 05:56:56 34° S 05:57:54 46° SE 06:01:09 10° NE visible
25 Oct -0.5 05:11:25 14° E 05:11:25 14° E 05:12:09 10° ENE visible
25 Oct -2.4 06:44:22 16° W 06:46:04 23° NW 06:48:50 10° NNE visible
